(129414) = 2000 SF170 = 2231 T-3

Discovered at Palomar on 1977-10-16 by C. J. van Houten, I. van Houten-Groeneveld, and T. Gehrels.

Orbit

Orbit type: Main Belt

Note: WebGL enabled browser required.

epoch2023-09-13.0
epoch JD2460200.5
perihelion date2022-11-29.29967
perihelion JD2459912.79967
argument of perihelion (°)349.29616
ascending node (°)308.63865
inclination (°)1.37183
eccentricity0.2134047
perihelion distance (AU)1.9194112
Tisserand w.r.t. Jupiter3.5
ΔV w.r.t. Earth (km/sec)8.7
semimajor axis (AU)2.4401509
mean anomaly (°)74.39079
mean daily motion (°/day)0.25857040
aphelion distance (AU)2.961
period (years)3.81
P-vector [x]0.46850816
P-vector [y]-0.80877893
P-vector [z]-0.35549506
Q-vector [x]0.88326123
Q-vector [y]0.42029099
Q-vector [z]0.20785830
absolute magnitude16.3
phase slope0.15
uncertainty0
referenceMPEC 2024-A55
observations used796
oppositions18
arc length (days)16886
first opposition used1977
last opposition used2024
residual rms (arc-secs)0.73
perturbers coarse indicatorM-v
perturbers precise indicator003Ek
first observation date used1977-10-11.0
last observation date used2024-01-04.0
computer nameMPCLINUX
JD of orbit computation2456937.547047
perihelion JD uncertainty (days)3.5006E-05
argument of perihelion uncertainty (°)1.6060E-04
ascending node uncertainty (°)1.6025E-04
inclination uncertainty (°)5.2761E-06
eccentricity uncertainty 5.0992E-08
perihelion distance uncertainty (AU)1.2772E-07
Minimum Orbit Intersection Distances (in AU)
for orbit epoch: 2460200.5, reference: E2023-Y18
Mercury1.47417
Venus1.19203
Earth0.90303
Mars0.49967
Jupiter2.24654
Saturn6.12687
Uranus15.6051
Neptune27.1712

Observations

824 total observations over interval: 1977 10 07.25868 – 2024 01 04.366172
These data are available for download (format description).

Date (UT) J2000 RA J2000 Dec Magn Location Ref
1977 10 07.25868 01 12 21.22 +10 06 43.1   675 – Palomar Mountain MPS 16146
1977 10 11.27743 01 08 27.16 +09 44 04.9   675 – Palomar Mountain MPS 16146
1977 10 11.28819 01 08 26.53 +09 44 00.2   675 – Palomar Mountain MPS 16146
1977 10 11.34375 01 08 23.11 +09 43 40.3   675 – Palomar Mountain MPS 16146
1977 10 11.35642 01 08 22.26 +09 43 35.9   675 – Palomar Mountain MPS 16146
1977 10 12.27587 01 07 29.32 +09 38 19.7   675 – Palomar Mountain MPS 16146
1977 10 12.28681 01 07 28.69 +09 38 16.3   675 – Palomar Mountain MPS 16146
1977 10 12.34271 01 07 25.27 +09 37 56.5   675 – Palomar Mountain MPS 16146
1977 10 12.35347 01 07 24.65 +09 37 53.3   675 – Palomar Mountain MPS 16146
1977 10 16.26233 01 03 42.40 +09 15 26.5 19.6   675 – Palomar Mountain MPS 16146
1977 10 16.32795 01 03 38.63 +09 15 03.0   675 – Palomar Mountain MPS 16146
1977 10 17.26458 01 02 46.86 +09 09 45.2   675 – Palomar Mountain MPS 16146
1977 10 17.33177 01 02 42.96 +09 09 22.9   675 – Palomar Mountain MPS 16146
1977 10 21.40868 00 59 04.98 +08 46 29.1   675 – Palomar Mountain MPS 16146
1977 10 21.46910 00 59 01.86 +08 46 08.2   675 – Palomar Mountain MPS 16146
1996 10 18.33863 00 14 53.62 +03 58 42.7 19.6 V 566 – Haleakala-NEAT/GEODSS MPS 21759
1996 10 18.34715 00 14 53.14 +03 58 40.4 19.4 V 566 – Haleakala-NEAT/GEODSS MPS 21759
1996 10 18.35561 00 14 52.78 +03 58 38.1 19.3 V 566 – Haleakala-NEAT/GEODSS MPS 21759
1998 01 02.29521 07 40 14.74 +22 09 04.7 20.8 V 691 – Steward Observatory, Kitt Peak-Spacewatch MPS 33705
1998 01 02.31775 07 40 13.33 +22 09 07.3 20.6 V 691 – Steward Observatory, Kitt Peak-Spacewatch MPS 33705
1998 01 02.34028 07 40 11.91 +22 09 09.9 21.2 V 691 – Steward Observatory, Kitt Peak-Spacewatch MPS 33705
2000 09 24.41258 02 40 58.00 +17 50 37.7 19.2   704 – Lincoln Laboratory ETS, New Mexico MPS 20081
2000 09 24.42699 02 40 57.54 +17 50 36.8 19.7   704 – Lincoln Laboratory ETS, New Mexico MPS 20081
2000 09 24.44141 02 40 57.13 +17 50 35.4 19.4   704 – Lincoln Laboratory ETS, New Mexico MPS 20081
2000 09 24.45585 02 40 56.66 +17 50 32.1 19.7   704 – Lincoln Laboratory ETS, New Mexico MPS 20081
2000 09 24.47025 02 40 56.30 +17 50 31.8 19.8   704 – Lincoln Laboratory ETS, New Mexico MPS 20081
2000 09 30.32752 02 37 43.86 +17 40 10.2 19.1   704 – Lincoln Laboratory ETS, New Mexico MPS 20081
2000 09 30.37359 02 37 42.10 +17 40 05.2 18.9   704 – Lincoln Laboratory ETS, New Mexico MPS 20081
2000 09 30.38907 02 37 41.47 +17 40 02.8 19.0   704 – Lincoln Laboratory ETS, New Mexico MPS 20081
2000 09 30.40407 02 37 40.87 +17 40 01.0 19.0   704 – Lincoln Laboratory ETS, New Mexico MPS 20081
2000 10 24.34730 02 16 32.91 +16 07 52.6 19.1   704 – Lincoln Laboratory ETS, New Mexico MPS 21311
2000 10 24.36075 02 16 32.06 +16 07 47.0 19.3   704 – Lincoln Laboratory ETS, New Mexico MPS 21311
2000 10 24.38763 02 16 30.32 +16 07 39.7 19.0   704 – Lincoln Laboratory ETS, New Mexico MPS 21311
2000 11 01.22934 02 08 33.24 +15 26 33.8 19.2   704 – Lincoln Laboratory ETS, New Mexico MPS 21312
2000 11 01.24307 02 08 32.33 +15 26 30.2 19.0   704 – Lincoln Laboratory ETS, New Mexico MPS 21312
2000 11 01.25669 02 08 31.48 +15 26 25.8 19.1   704 – Lincoln Laboratory ETS, New Mexico MPS 21312
2000 11 02.21786 02 07 34.71 +15 21 18.8 18.7   704 – Lincoln Laboratory ETS, New Mexico MPS 21312
2000 11 02.23172 02 07 33.87 +15 21 14.3 19.5   704 – Lincoln Laboratory ETS, New Mexico MPS 21312
2000 11 02.25884 02 07 32.20 +15 21 05.2 19.2   704 – Lincoln Laboratory ETS, New Mexico MPS 21312
2000 11 02.27292 02 07 31.35 +15 21 00.4 19.3   704 – Lincoln Laboratory ETS, New Mexico MPS 21312
2002 01 22.17175 08 32 58.07 +18 58 34.4 21.2 V 291 – LPL/Spacewatch II MPS 50438
2002 01 22.19300 08 32 56.74 +18 58 38.8 20.7 V 291 – LPL/Spacewatch II MPS 50438
2002 01 22.21449 08 32 55.36 +18 58 43.3 21.0 V 291 – LPL/Spacewatch II MPS 50438
2003 04 29.33473 15 14 11.75 -20 35 11.2 19.7   704 – Lincoln Laboratory ETS, New Mexico MPS 78562
2003 04 29.34667 15 14 11.00 -20 35 08.7 19.7   704 – Lincoln Laboratory ETS, New Mexico MPS 78562
2003 04 29.35868 15 14 10.34 -20 35 06.8 19.6   704 – Lincoln Laboratory ETS, New Mexico MPS 78562
2003 04 29.37059 15 14 09.63 -20 35 03.0 19.9   704 – Lincoln Laboratory ETS, New Mexico MPS 78562
2003 04 30.31597 15 13 19.59 -20 32 12.3 19.1   704 – Lincoln Laboratory ETS, New Mexico MPS 78562
2003 04 30.31824 15 13 19.38 -20 32 12.7 19.3   704 – Lincoln Laboratory ETS, New Mexico MPS 78562
2003 04 30.32791 15 13 18.85 -20 32 09.8 19.3   704 – Lincoln Laboratory ETS, New Mexico MPS 78562
2003 04 30.33025 15 13 18.66 -20 32 08.2 19.9   704 – Lincoln Laboratory ETS, New Mexico MPS 78562
2003 04 30.33171 15 13 18.73 -20 32 10.4 19.6   704 – Lincoln Laboratory ETS, New Mexico MPS 78562
2003 04 30.34008 15 13 18.19 -20 32 08.6 19.1   704 – Lincoln Laboratory ETS, New Mexico MPS 78562
2003 04 30.34219 15 13 18.01 -20 32 07.8 19.5   704 – Lincoln Laboratory ETS, New Mexico MPS 78562
2003 04 30.34365 15 13 17.99 -20 32 07.9 19.5   704 – Lincoln Laboratory ETS, New Mexico MPS 78562
2003 04 30.35195 15 13 17.46 -20 32 06.8 18.9   704 – Lincoln Laboratory ETS, New Mexico MPS 78562
2003 04 30.35414 15 13 17.37 -20 32 05.5 20.0   704 – Lincoln Laboratory ETS, New Mexico MPS 78562
2003 04 30.35560 15 13 17.29 -20 32 05.1 19.5   704 – Lincoln Laboratory ETS, New Mexico MPS 78562
2003 04 30.36379 15 13 16.89 -20 32 03.7 19.1   704 – Lincoln Laboratory ETS, New Mexico MPS 78562
2003 04 30.36616 15 13 16.68 -20 32 03.5 19.8   704 – Lincoln Laboratory ETS, New Mexico MPS 78562
2003 04 30.36763 15 13 16.65 -20 32 03.4 19.3   704 – Lincoln Laboratory ETS, New Mexico MPS 78562
2006 01 05.38238 09 54 58.78 +12 31 13.4 21.2 V G96 – Mt. Lemmon Survey MPS 157965
2006 01 05.38869 09 54 58.68 +12 31 14.4 21.2 V G96 – Mt. Lemmon Survey MPS 157965
2006 01 05.39499 09 54 58.42 +12 31 14.8 20.5 V G96 – Mt. Lemmon Survey MPS 157965
2006 01 05.40130 09 54 58.24 +12 31 14.6 20.6 V G96 – Mt. Lemmon Survey MPS 157965
2006 01 22.22848 09 44 15.13 +13 19 45.0 20.8 V 691 – Steward Observatory, Kitt Peak-Spacewatch MPS 160652
2006 01 22.24575 09 44 14.28 +13 19 48.9 20.7 V 691 – Steward Observatory, Kitt Peak-Spacewatch MPS 160652
2006 01 22.26310 09 44 13.40 +13 19 52.9 20.9 V 691 – Steward Observatory, Kitt Peak-Spacewatch MPS 160652
2006 02 01.21038 09 35 22.16 +13 59 58.0 20.7 V 691 – Steward Observatory, Kitt Peak-Spacewatch MPS 162046
2006 02 01.22772 09 35 21.19 +14 00 02.6 20.6 V 691 – Steward Observatory, Kitt Peak-Spacewatch MPS 162046
2006 02 01.24509 09 35 20.17 +14 00 06.7 20.5 V 691 – Steward Observatory, Kitt Peak-Spacewatch MPS 162046
2006 02 20.27991 09 16 42.56 +15 21 01.9 20.6 V G96 – Mt. Lemmon Survey MPS 163990
2006 02 20.28965 09 16 41.98 +15 21 04.1 20.4 V G96 – Mt. Lemmon Survey MPS 163990
2006 02 20.29656 09 16 41.59 +15 21 05.5 20.5 V G96 – Mt. Lemmon Survey MPS 163990
2006 02 20.31274 09 16 40.65 +15 21 09.5 20.4 V G96 – Mt. Lemmon Survey MPS 163990
2008 09 04.46635 05 10 44.82 +24 18 58.6 21.1 V 691 – Steward Observatory, Kitt Peak-Spacewatch MPS 255668
2008 09 04.47895 05 10 45.57 +24 18 59.5 21.6 V 691 – Steward Observatory, Kitt Peak-Spacewatch MPS 255668
2008 09 04.49156 05 10 46.32 +24 19 01.2 21.2 V 691 – Steward Observatory, Kitt Peak-Spacewatch MPS 255668
2008 11 30.28502 05 05 29.39 +24 35 30.2 20.2 V 691 – Steward Observatory, Kitt Peak-Spacewatch MPS 268571
2008 11 30.30265 05 05 28.23 +24 35 28.4 21.0 V 691 – Steward Observatory, Kitt Peak-Spacewatch MPS 268571
2008 11 30.32028 05 05 26.99 +24 35 26.8 20.3 V 691 – Steward Observatory, Kitt Peak-Spacewatch MPS 268571
2008 12 04.25273 05 01 04.51 +24 28 47.8 20.1 V 691 – Steward Observatory, Kitt Peak-Spacewatch MPS 268571
2008 12 04.27151 05 01 03.21 +24 28 45.7 20.0 V 691 – Steward Observatory, Kitt Peak-Spacewatch MPS 268571
2008 12 04.29123 05 01 01.85 +24 28 43.7 20.1 V 691 – Steward Observatory, Kitt Peak-Spacewatch MPS 268571
2008 12 21.13357 04 43 00.05 +23 53 15.7 20.0 V 691 – Steward Observatory, Kitt Peak-Spacewatch MPS 269865
2008 12 21.14742 04 42 59.25 +23 53 14.1 20.0 V 691 – Steward Observatory, Kitt Peak-Spacewatch MPS 269865
